Location: Newark
(27.9675°N, 86.8869°E)
Time: 09:22:31
(UTC+00:00)

Vanguard 2 Rocket - All Passes

Search period start: 19 October 2019 00:00
Search period end: 29 October 2019 00:00
Orbit: 553 x 3327 km, 32.9° (Epoch: 18 October)

Date Brightness Start Highest point End Pass type
(mag) Time Alt. Az. Time Alt. Az. Time Alt. Az.
19 Oct - 00:26:20 10° SSW 00:39:00 35° SE 00:55:40 10° E daylight
19 Oct - 02:38:18 10° SW 02:55:41 75° SSE 03:15:50 10° ENE daylight
19 Oct - 04:55:04 10° W 05:15:24 78° N 05:33:05 10° ENE daylight
19 Oct - 07:14:57 10° WNW 07:35:20 79° N 07:48:46 10° E daylight
19 Oct - 09:35:28 10° WNW 09:52:19 65° SSW 10:02:00 10° SE daylight
19 Oct - 11:58:05 10° W 12:05:14 18° SW 12:10:33 10° SSW visible
19 Oct - 23:28:43 10° S 23:38:25 23° SE 23:50:59 10° E visible
20 Oct - 01:38:17 10° SW 01:53:39 62° SE 02:13:36 10° ENE daylight
20 Oct - 03:53:19 10° WSW 04:12:28 84° NNW 04:31:51 10° ENE daylight
20 Oct - 06:12:06 10° W 06:32:54 76° N 06:48:26 10° E daylight
20 Oct - 08:32:22 10° WNW 08:51:24 81° SSW 09:02:50 10° ESE daylight
20 Oct - 10:53:36 10° W 11:05:50 32° SW 11:13:38 10° SSE daylight
20 Oct - 22:34:07 10° SE 22:38:16 12° SE 22:42:56 10° ESE visible
21 Oct - 00:39:00 10° SSW 00:52:14 48° SE 01:10:44 10° ENE daylight
21 Oct - 02:52:16 10° WSW 03:09:43 88° SSE 03:30:09 10° ENE daylight
21 Oct - 05:09:41 10° W 05:30:02 75° N 05:47:37 10° E daylight
21 Oct - 07:29:23 10° WNW 07:49:46 88° NNE 08:03:10 10° ESE daylight
21 Oct - 09:49:57 10° WNW 10:05:54 48° SW 10:15:33 10° SSE daylight
21 Oct - 23:40:33 10° SSW 23:51:30 34° SE 00:07:03 10° E visible
22 Oct - 01:51:56 10° SW 02:07:24 76° SSE 02:27:58 10° ENE daylight
22 Oct - 04:07:48 10° W 04:26:59 78° N 04:46:18 10° E daylight
22 Oct - 06:26:39 10° WNW 06:47:29 80° NNE 07:02:57 10° E daylight
22 Oct - 08:46:41 10° WNW 09:05:17 65° SSW 09:16:44 10° SE daylight
22 Oct - 11:09:28 10° W 11:18:56 21° SW 11:25:46 10° S daylight
22 Oct - 22:43:15 10° S 22:51:20 21° SE 23:02:08 10° E visible
23 Oct - 00:52:17 10° SW 01:05:42 62° SE 01:25:18 10° ENE daylight
23 Oct - 03:06:34 10° WSW 03:24:02 83° NNW 03:44:31 10° ENE daylight
23 Oct - 05:24:17 10° W 05:44:42 76° N 06:02:11 10° E daylight
23 Oct - 07:43:42 10° WNW 08:03:57 80° SSW 08:17:21 10° ESE daylight
23 Oct - 10:04:52 10° WNW 10:19:10 34° SW 10:28:32 10° SSE daylight
23 Oct - 23:53:18 10° SSW 00:04:42 47° SE 00:22:06 10° ENE visible
24 Oct - 02:05:58 10° WSW 02:21:27 89° SSE 02:42:16 10° ENE daylight
24 Oct - 04:22:23 10° W 04:41:38 76° N 05:00:51 10° E daylight
24 Oct - 06:41:03 10° WNW 07:01:53 89° NNE 07:17:19 10° ESE daylight
24 Oct - 09:01:10 10° WNW 09:18:50 50° SW 09:30:13 10° SSE daylight
24 Oct - 11:28:14 10° WSW 11:31:59 11° SW 11:35:18 10° SW daylight
24 Oct - 22:55:07 10° SSW 23:04:24 32° SE 23:18:16 10° E visible
25 Oct - 01:06:01 10° SW 01:19:27 77° SSE 01:39:39 10° ENE daylight
25 Oct - 03:21:03 10° W 03:38:34 77° N 03:59:00 10° E daylight
25 Oct - 05:38:47 10° WNW 05:59:17 81° NNE 06:16:42 10° ESE daylight
25 Oct - 07:58:02 10° WNW 08:17:48 65° SSW 08:31:10 10° SE daylight
25 Oct - 10:20:40 10° W 10:32:15 23° SW 10:40:41 10° S daylight
25 Oct - 21:58:11 10° SSE 22:04:39 18° SE 22:13:17 10° E visible
26 Oct - 00:06:40 10° SW 00:18:10 62° SE 00:36:39 10° ENE daylight
26 Oct - 02:20:18 10° WSW 02:35:48 82° NNW 02:56:39 10° ENE daylight
26 Oct - 04:36:58 10° W 04:56:17 77° N 05:15:27 10° E daylight
26 Oct - 06:55:22 10° WNW 07:16:02 79° SSW 07:31:26 10° ESE daylight
26 Oct - 09:16:04 10° WNW 09:32:05 36° SW 09:43:08 10° SSE daylight
26 Oct - 23:07:57 10° SSW 23:17:37 45° SE 23:33:18 10° ENE visible
27 Oct - 01:20:06 10° WSW 01:33:33 90° SSE 01:53:57 10° ENE daylight
27 Oct - 03:35:37 10° W 03:53:14 75° N 04:13:35 10° E daylight
27 Oct - 05:53:11 10° WNW 06:13:39 90° SSW 06:31:03 10° ESE daylight
27 Oct - 08:12:31 10° WNW 08:31:19 51° SW 08:44:33 10° SSE daylight
27 Oct - 10:38:42 10° WSW 10:45:18 14° SW 10:50:52 10° SSW daylight
27 Oct - 22:10:01 10° S 22:17:43 29° SE 22:29:30 10° E visible
28 Oct - 00:20:29 10° WSW 00:31:58 77° SSE 00:50:59 10° ENE daylight
28 Oct - 02:34:47 10° W 02:50:22 76° N 03:11:10 10° E daylight
28 Oct - 04:51:26 10° WNW 05:10:51 82° NNE 05:29:58 10° ESE daylight
28 Oct - 07:09:43 10° WNW 07:29:50 65° SSW 07:45:11 10° SE daylight
28 Oct - 09:31:50 10° W 09:45:10 25° SW 09:55:13 10° S daylight
28 Oct - 21:13:28 10° SSE 21:18:19 16° SE 21:24:36 10° E visible
28 Oct - 23:21:24 10° SW 23:31:07 61° SE 23:47:51 10° ENE visible
